sat.trackr.live / text

‹ back to catalog

ONEWEB-0501

NORAD 54119 · 2022-138G

PAYLOAD ACTIVE UNKNOWN

§ Identity

Operator
Country
UK
Launch date
2022-10-22
Launch site
SRILR
Launch vehicle
Mass (kg)
RCS (m²)

Purposes: comms

External: N2YO · Heavens-Above · Gunter

§ Orbital elements

Epoch: 2026-09-20T00:18:42.562368Z

Period
109.11 min
Inclination
87.9106°
Eccentricity
0.0002008
Mean motion
13.19725698 rev/d
Perigee alt
1,184.2 km
Apogee alt
1,187.3 km
Semi-major
7,563.9 km
B*
8.5213e-6
RAAN
286.0758°
Arg perigee
79.9114°
Mean anomaly
280.2245°
Rev number
18,931

§ Raw data

ONEWEB-05011 54119U 22138G   26263.01299262  .00000016  00000+0  85213-5 0  99962 54119  87.9106 286.0758 0002008  79.9114 280.2245 13.19725698189316

JSON: /api/v1/satellites/54119 · /tle

For live sub-satellite position, see the globe view (requires WebGL).

§ Visibility from observer

Set your observer location to see the next 7 days of passes ≥ 10°. The values pass through the URL so the page stays shareable.

No JS? Fill the form by hand. The geolocation button needs JavaScript.